Flag for Norway

Past Weather in Mo i Rana, Norway — Yesterday and Last 2 Weeks

Now
55 °F

Scattered clouds.


Feels Like: 54 °F
Forecast: 54 / 37 °F
Wind: 6 mph from South

Location: Mo I Rana / Rossvoll

Current Time: Jul 2, 2020 at 7:21:09 pm

Latest Report: Jul 2, 2020 at 6:20 pm


Visibility: N/A

Pressure: 29.62 "Hg

Humidity: 59%

Dew Point: 41 °F

Location of Mo i RanaLocation

Past Weather in Mo i Rana — Graph

°F

Mo i Rana Temperature Yesterday

Maximum temperature yesterday: 54 °F (at 12:50 pm)
Minimum temperature yesterday: 43 °F (at 11:20 pm)
Average temperature yesterday: 49 °F

High & Low Weather Summary for the Past Weeks

 TemperatureHumidityPressure
High79 °F (Jun 22, 2:20 pm)100% (Jun 30, 5:50 am)30.30 "Hg (Jun 30, 5:50 am)
Low43 °F (Jun 19, 4:50 am)22% (Jun 19, 4:20 pm)29.24 "Hg (Jun 30, 6:20 pm)
Average61 °F60%29.88 "Hg
* Reported Jun 17 5:20 pm — Jul 2 5:50 pm, Mo i Rana. Weather by CustomWeather, © 2020

Note: Actual official high and low records may vary slightly from our data, if they occured in-between our weather recording intervals... More about our weather records

Mo i Rana Weather History for the Previous 24 Hours

Scroll right to see more
 ConditionsComfort  
Time TempWeatherWind HumidityBarometerVisibility
5:50 pm
Thu, Jul 2
54 °FPartly sunny.9 mph58%29.62 "HgN/A
5:20 pm54 °FScattered showers. Scattered clouds.9 mph58%29.62 "HgN/A
4:20 pm54 °FScattered clouds.7 mph63%29.59 "HgN/A
3:50 pm52 °FPartly sunny.7 mph62%29.59 "HgN/A
3:20 pm52 °FScattered clouds.5 mph62%29.59 "HgN/A
2:50 pm46 °FSprinkles. Scattered clouds.8 mph76%29.59 "HgN/A
1:50 pm52 °FScattered clouds.5 mph67%29.59 "HgN/A
1:20 pm50 °FScattered showers. Scattered clouds.6 mph76%29.59 "HgN/A
12:50 pm45 °FSprinkles. Partly sunny.17 mph81%29.59 "HgN/A
12:20 pm54 °FScattered showers. Scattered clouds.5 mph58%29.56 "HgN/A
11:50 am52 °FScattered showers. Scattered clouds.5 mph67%29.56 "HgN/A
11:20 am48 °FScattered showers. Scattered clouds.5 mph71%29.56 "HgN/A
10:50 am46 °FSprinkles. Partly sunny.5 mph82%29.56 "HgN/A
10:20 am45 °FSprinkles. Partly sunny.7 mph81%29.56 "HgN/A
9:50 am48 °FSprinkles. Partly sunny.8 mph71%29.53 "HgN/A
9:20 am48 °FScattered showers. Partly sunny.3 mph71%29.53 "HgN/A
8:50 am45 °FScattered showers. Broken clouds.7 mph87%29.53 "HgN/A
8:20 am46 °FSprinkles. Broken clouds.10 mph76%29.53 "HgN/A
7:50 am48 °FBroken clouds.6 mph71%29.50 "HgN/A
6:50 am45 °FScattered showers. Broken clouds.3 mph81%29.50 "HgN/A
6:20 am45 °FScattered showers. Broken clouds.9 mph81%29.50 "HgN/A
5:50 am45 °FSprinkles. Partly sunny.7 mph81%29.50 "HgN/A
11:20 pm
Wed, Jul 1
43 °FSprinkles. Scattered clouds.6 mph87%29.45 "HgN/A
10:50 pm45 °FScattered showers. Scattered clouds.5 mph81%29.45 "HgN/A
10:20 pm46 °FScattered showers. Scattered clouds.6 mph76%29.45 "HgN/A
9:50 pm46 °FScattered showers. Scattered clouds.6 mph82%29.42 "HgN/A
9:20 pm46 °FScattered clouds.9 mph76%29.42 "HgN/A
8:50 pm46 °FScattered showers. Broken clouds.8 mph76%29.42 "HgN/A
8:20 pm48 °FScattered showers. Broken clouds.6 mph71%29.42 "HgN/A
7:50 pm48 °FScattered showers. Broken clouds.9 mph66%29.42 "HgN/A
7:20 pm50 °FScattered showers. Broken clouds.10 mph62%29.42 "HgN/A
Weather by CustomWeather, © 2020

See weather overview